ARG1681 SAZS-SAEZ

Flight info

Callsign ARG1681
Flight time 1h 37m
Altitude 37000
Route LIMAY1G LIMAY UZ109 ISMIL UT655 ASADA ASADA7U
Aircraft B738/M-SDE2E3FGHIRWXY/LB1

Departure

Time 2026-05-05 14:26
Airport Teniente Luis Candelaria International Airport (SAZS)

Arrival

Time 2026-05-05 16:03
Airport Ezeiza International Airport - Ministro Pistarini (SAEZ)
Time Latitude Longitude Altitude Speed Heading
2026-05-05 13:58 -41.14638 -71.16222 2769 ft 0 kts 47°
2026-05-05 13:59 -41.14644 -71.16231 2769 ft 2 kts 47°
2026-05-05 14:18 -41.14649 -71.16225 2769 ft 0 kts 47°
2026-05-05 14:18 -41.14654 -71.16233 2769 ft 2 kts 47°
2026-05-05 14:19 -41.14666 -71.16250 2769 ft 3 kts 47°
2026-05-05 14:19 -41.14674 -71.16261 2769 ft 0 kts 47°
2026-05-05 14:20 -41.14671 -71.16247 2769 ft 3 kts 104°
2026-05-05 14:21 -41.14699 -71.16246 2769 ft 7 kts 199°
2026-05-05 14:21 -41.14749 -71.16270 2769 ft 11 kts 196°
2026-05-05 14:21 -41.14817 -71.16176 2769 ft 19 kts 115°
2026-05-05 14:21 -41.14870 -71.16024 2769 ft 18 kts 115°
2026-05-05 14:22 -41.14920 -71.15881 2769 ft 17 kts 115°
2026-05-05 14:22 -41.14967 -71.15745 2769 ft 16 kts 115°
2026-05-05 14:22 -41.15011 -71.15618 2769 ft 15 kts 115°
2026-05-05 14:22 -41.15053 -71.15498 2769 ft 14 kts 115°
2026-05-05 14:23 -41.15092 -71.15386 2769 ft 13 kts 115°
2026-05-05 14:23 -41.15129 -71.15279 2769 ft 12 kts 115°
2026-05-05 14:23 -41.15165 -71.15176 2769 ft 12 kts 115°
2026-05-05 14:23 -41.15199 -71.15078 2769 ft 12 kts 115°
2026-05-05 14:24 -41.15243 -71.14952 2769 ft 21 kts 115°
2026-05-05 14:24 -41.15302 -71.14781 2769 ft 20 kts 114°
2026-05-05 14:24 -41.15357 -71.14618 2769 ft 19 kts 114°
2026-05-05 14:24 -41.15423 -71.14475 2769 ft 18 kts 163°
2026-05-05 14:25 -41.15525 -71.14523 2769 ft 8 kts 204°
2026-05-05 14:25 -41.15538 -71.14534 2769 ft 1 kts 250°
2026-05-05 14:25 -41.15530 -71.14577 2769 ft 13 kts 296°
2026-05-05 14:25 -41.15431 -71.14861 2769 ft 63 kts 294°
2026-05-05 14:26 -41.15160 -71.15636 2769 ft 121 kts 295°
2026-05-05 14:26 -41.14732 -71.16858 2787 ft 167 kts 295°
2026-05-05 14:26 -41.14231 -71.18287 3309 ft 165 kts 295°
2026-05-05 14:26 -41.13763 -71.19624 4121 ft 158 kts 296°
2026-05-05 14:27 -41.13307 -71.20949 4759 ft 161 kts 289°
2026-05-05 14:27 -41.12814 -71.22451 4833 ft 194 kts 291°
2026-05-05 14:27 -41.12251 -71.24201 5081 ft 217 kts 291°
2026-05-05 14:27 -41.11615 -71.26112 5364 ft 237 kts 291°
2026-05-05 14:28 -41.10915 -71.28188 5687 ft 255 kts 291°
2026-05-05 14:28 -41.10197 -71.30307 6614 ft 247 kts 289°
2026-05-05 14:28 -41.09496 -71.32366 7523 ft 243 kts 289°
2026-05-05 14:28 -41.08813 -71.34377 8471 ft 236 kts 289°
2026-05-05 14:29 -41.08090 -71.36295 9443 ft 231 kts 299°
2026-05-05 14:29 -41.06900 -71.37726 10318 ft 238 kts 324°
2026-05-05 14:29 -41.05245 -71.38323 10953 ft 260 kts 350°
2026-05-05 14:29 -41.03425 -71.37713 11597 ft 286 kts 22°
2026-05-05 14:30 -41.01973 -71.35846 12249 ft 308 kts 53°
2026-05-05 14:30 -41.01305 -71.33099 12893 ft 323 kts 84°
2026-05-05 14:30 -41.01503 -71.30117 13566 ft 328 kts 98°
2026-05-05 14:30 -41.01626 -71.27082 14186 ft 332 kts 84°
2026-05-05 14:31 -41.01195 -71.24078 14781 ft 332 kts 63°
2026-05-05 14:31 -41.00044 -71.21490 15411 ft 322 kts 41°
2026-05-05 14:31 -40.98527 -71.19301 16087 ft 327 kts 41°
2026-05-05 14:31 -40.97274 -71.16701 16715 ft 342 kts 56°
2026-05-05 14:32 -40.96227 -71.13838 17325 ft 347 kts 54°
2026-05-05 14:32 -40.95100 -71.11041 17919 ft 351 kts 52°
2026-05-05 14:32 -40.93924 -71.08187 18472 ft 357 kts 51°
2026-05-05 14:32 -40.92702 -71.05262 18799 ft 372 kts 52°
2026-05-05 14:33 -40.91420 -71.02195 19016 ft 390 kts 52°
2026-05-05 14:33 -40.90082 -70.98986 19226 ft 407 kts 52°
2026-05-05 14:33 -40.88723 -70.95646 19430 ft 424 kts 53°
2026-05-05 14:33 -40.87281 -70.92161 19769 ft 434 kts 53°
2026-05-05 14:34 -40.85820 -70.88656 20320 ft 438 kts 52°
2026-05-05 14:34 -40.84333 -70.85108 20894 ft 442 kts 52°
2026-05-05 14:34 -40.82836 -70.81545 21449 ft 445 kts 51°
2026-05-05 14:34 -40.81327 -70.77959 21991 ft 449 kts 51°
2026-05-05 14:35 -40.79804 -70.74345 22524 ft 452 kts 51°
2026-05-05 14:35 -40.78272 -70.70709 23044 ft 455 kts 50°
2026-05-05 14:35 -40.76728 -70.67048 23555 ft 458 kts 50°
2026-05-05 14:35 -40.75109 -70.63447 24032 ft 455 kts 45°
2026-05-05 14:36 -40.73274 -70.60070 24456 ft 451 kts 40°
2026-05-05 14:36 -40.71220 -70.56967 24878 ft 447 kts 35°
2026-05-05 14:36 -40.69062 -70.54002 25288 ft 450 kts 34°
2026-05-05 14:36 -40.66930 -70.51013 25687 ft 456 kts 36°
2026-05-05 14:37 -40.64763 -70.47943 26077 ft 460 kts 36°
2026-05-05 14:37 -40.62579 -70.44842 26461 ft 463 kts 36°
2026-05-05 14:37 -40.60383 -70.41702 26833 ft 469 kts 38°
2026-05-05 14:37 -40.58277 -70.38364 27196 ft 478 kts 42°
2026-05-05 14:38 -40.56263 -70.34857 27556 ft 484 kts 44°
2026-05-05 14:38 -40.54272 -70.31266 27906 ft 487 kts 44°
2026-05-05 14:38 -40.52258 -70.27678 28249 ft 490 kts 44°
2026-05-05 14:38 -40.50215 -70.24071 28584 ft 493 kts 44°
2026-05-05 14:39 -40.48155 -70.20460 28909 ft 495 kts 44°
2026-05-05 14:39 -40.46077 -70.16834 29226 ft 498 kts 44°
2026-05-05 14:39 -40.43983 -70.13191 29537 ft 501 kts 44°
2026-05-05 14:39 -40.41878 -70.09538 29838 ft 504 kts 44°
2026-05-05 14:40 -40.39757 -70.05864 30132 ft 506 kts 45°
2026-05-05 14:40 -40.37643 -70.02145 30425 ft 509 kts 45°
2026-05-05 14:40 -40.35521 -69.98418 30749 ft 510 kts 45°
2026-05-05 14:40 -40.33388 -69.94694 31055 ft 512 kts 45°
2026-05-05 14:41 -40.31244 -69.90966 31354 ft 513 kts 45°
2026-05-05 14:41 -40.29095 -69.87241 31736 ft 512 kts 45°
2026-05-05 14:41 -40.26953 -69.83536 32184 ft 509 kts 45°
2026-05-05 14:41 -40.24816 -69.79847 32594 ft 507 kts 45°
2026-05-05 14:42 -40.22688 -69.76178 32982 ft 506 kts 46°
2026-05-05 14:42 -40.20562 -69.72518 33370 ft 504 kts 46°
2026-05-05 14:42 -40.18448 -69.68882 33747 ft 502 kts 46°
2026-05-05 14:42 -40.16326 -69.65239 34118 ft 500 kts 46°
2026-05-05 14:43 -40.14221 -69.61629 34480 ft 499 kts 46°
2026-05-05 14:43 -40.12120 -69.58030 34834 ft 497 kts 46°
2026-05-05 14:43 -40.10025 -69.54445 35181 ft 496 kts 46°
2026-05-05 14:43 -40.07935 -69.50872 35519 ft 494 kts 46°
2026-05-05 14:44 -40.05873 -69.47353 35845 ft 493 kts 46°
2026-05-05 14:44 -40.03793 -69.43805 36161 ft 491 kts 46°
2026-05-05 14:44 -40.01714 -69.40263 36475 ft 490 kts 46°
2026-05-05 14:44 -39.99645 -69.36743 36781 ft 489 kts 47°
2026-05-05 14:45 -39.97575 -69.33225 36894 ft 491 kts 47°
2026-05-05 14:45 -39.95481 -69.29671 36904 ft 495 kts 47°
2026-05-05 14:45 -39.91249 -69.22498 36905 ft 503 kts 47°
2026-05-05 14:46 -39.87674 -69.16451 36905 ft 507 kts 47°
2026-05-05 14:46 -39.83364 -69.09178 36909 ft 507 kts 47°
2026-05-05 14:47 -39.79062 -69.01935 36912 ft 506 kts 47°
2026-05-05 14:47 -39.74749 -68.94689 36914 ft 506 kts 46°
2026-05-05 14:48 -39.70430 -68.87450 36918 ft 506 kts 46°
2026-05-05 14:48 -39.66109 -68.80224 36919 ft 506 kts 46°
2026-05-05 14:49 -39.61788 -68.73015 36922 ft 506 kts 46°
2026-05-05 14:49 -39.57492 -68.65863 36924 ft 506 kts 46°
2026-05-05 14:50 -39.53161 -68.58658 36926 ft 506 kts 47°
2026-05-05 14:50 -39.48847 -68.51454 36938 ft 507 kts 46°
2026-05-05 14:51 -39.44479 -68.44248 36967 ft 511 kts 46°
2026-05-05 14:51 -39.40098 -68.37044 36980 ft 509 kts 46°
2026-05-05 14:52 -39.35719 -68.29853 36987 ft 510 kts 47°
2026-05-05 14:52 -39.31315 -68.22630 36994 ft 513 kts 47°
2026-05-05 14:53 -39.26881 -68.15400 36993 ft 511 kts 46°
2026-05-05 14:53 -39.22466 -68.08221 36993 ft 511 kts 46°
2026-05-05 14:54 -39.18301 -68.01461 36994 ft 512 kts 46°
2026-05-05 14:54 -39.13862 -67.94273 36994 ft 512 kts 46°
2026-05-05 14:55 -39.09447 -67.87056 36994 ft 512 kts 47°
2026-05-05 14:55 -39.05034 -67.79862 36994 ft 512 kts 46°
2026-05-05 14:56 -39.00627 -67.72727 36994 ft 512 kts 46°
2026-05-05 14:56 -38.96184 -67.65558 36994 ft 512 kts 46°
2026-05-05 14:57 -38.91745 -67.58416 36994 ft 512 kts 46°
2026-05-05 14:57 -38.87297 -67.51274 36994 ft 512 kts 46°
2026-05-05 14:58 -38.82840 -67.44135 36994 ft 512 kts 46°
2026-05-05 14:58 -38.78386 -67.37017 36994 ft 512 kts 46°
2026-05-05 14:59 -38.73921 -67.29897 36994 ft 512 kts 46°
2026-05-05 14:59 -38.69462 -67.22801 36994 ft 512 kts 46°
2026-05-05 15:00 -38.65747 -67.16902 36994 ft 512 kts 46°
2026-05-05 15:00 -38.60522 -67.08622 36994 ft 512 kts 46°
2026-05-05 15:01 -38.56043 -67.01541 36994 ft 512 kts 46°
2026-05-05 15:01 -38.51573 -66.94439 36994 ft 512 kts 46°
2026-05-05 15:02 -38.47119 -66.87424 36994 ft 512 kts 46°
2026-05-05 15:02 -38.42625 -66.80387 36994 ft 512 kts 46°
2026-05-05 15:03 -38.38127 -66.73359 36994 ft 512 kts 46°
2026-05-05 15:03 -38.33756 -66.66181 36993 ft 516 kts 52°
2026-05-05 15:04 -38.30179 -66.58210 36994 ft 520 kts 58°
2026-05-05 15:04 -38.26782 -66.50080 36994 ft 519 kts 58°
2026-05-05 15:05 -38.21643 -66.37953 36994 ft 519 kts 58°
2026-05-05 15:06 -38.18203 -66.29889 36994 ft 519 kts 57°
2026-05-05 15:06 -38.14792 -66.21783 36994 ft 519 kts 58°
2026-05-05 15:07 -38.11377 -66.13714 36994 ft 519 kts 58°
2026-05-05 15:07 -38.07937 -66.05648 36994 ft 519 kts 58°
2026-05-05 15:08 -38.04489 -65.97596 36994 ft 519 kts 57°
2026-05-05 15:08 -38.01055 -65.89604 36994 ft 519 kts 57°
2026-05-05 15:09 -37.97594 -65.81569 36994 ft 519 kts 57°
2026-05-05 15:09 -37.94128 -65.73546 36994 ft 519 kts 57°
2026-05-05 15:10 -37.90657 -65.65531 36994 ft 519 kts 57°
2026-05-05 15:10 -37.87180 -65.57521 36994 ft 519 kts 57°
2026-05-05 15:11 -37.83696 -65.49516 36994 ft 519 kts 57°
2026-05-05 15:11 -37.80210 -65.41525 36994 ft 519 kts 57°
2026-05-05 15:12 -37.76719 -65.33543 36994 ft 519 kts 57°
2026-05-05 15:12 -37.73221 -65.25565 36994 ft 519 kts 57°
2026-05-05 15:13 -37.69720 -65.17600 36994 ft 519 kts 57°
2026-05-05 15:13 -37.66235 -65.09691 36994 ft 519 kts 57°
2026-05-05 15:14 -37.62722 -65.01737 36994 ft 519 kts 57°
2026-05-05 15:14 -37.59205 -64.93795 36994 ft 519 kts 57°
2026-05-05 15:15 -37.55680 -64.85852 36994 ft 519 kts 57°
2026-05-05 15:15 -37.52152 -64.77923 36994 ft 519 kts 57°
2026-05-05 15:16 -37.48635 -64.69993 36994 ft 519 kts 57°
2026-05-05 15:16 -37.45108 -64.62070 36994 ft 518 kts 57°
2026-05-05 15:17 -37.41556 -64.54172 36994 ft 518 kts 56°
2026-05-05 15:17 -37.38000 -64.46287 36994 ft 518 kts 56°
2026-05-05 15:18 -37.34440 -64.38400 36994 ft 518 kts 56°
2026-05-05 15:18 -37.30856 -64.30541 36994 ft 518 kts 56°
2026-05-05 15:19 -37.27250 -64.22709 36994 ft 518 kts 56°
2026-05-05 15:19 -37.23641 -64.14886 36994 ft 518 kts 56°
2026-05-05 15:20 -37.20022 -64.07060 36994 ft 518 kts 56°
2026-05-05 15:20 -37.16403 -63.99246 36994 ft 518 kts 56°
2026-05-05 15:21 -37.12831 -63.91404 36994 ft 518 kts 56°
2026-05-05 15:21 -37.09244 -63.83617 37004 ft 520 kts 56°
2026-05-05 15:22 -37.05602 -63.75754 37019 ft 523 kts 56°
2026-05-05 15:22 -37.01944 -63.67885 37023 ft 522 kts 56°
2026-05-05 15:23 -36.98282 -63.60029 37023 ft 522 kts 56°
2026-05-05 15:23 -36.94615 -63.52183 37023 ft 522 kts 56°
2026-05-05 15:24 -36.90941 -63.44339 37023 ft 522 kts 56°
2026-05-05 15:24 -36.87265 -63.36511 37023 ft 522 kts 56°
2026-05-05 15:25 -36.83579 -63.28680 37023 ft 522 kts 56°
2026-05-05 15:25 -36.79892 -63.20865 37023 ft 522 kts 56°
2026-05-05 15:26 -36.76203 -63.13064 37023 ft 522 kts 56°
2026-05-05 15:26 -36.72505 -63.05263 37023 ft 522 kts 56°
2026-05-05 15:27 -36.68799 -62.97464 37023 ft 522 kts 55°
2026-05-05 15:27 -36.65094 -62.89683 37023 ft 522 kts 55°
2026-05-05 15:28 -36.61379 -62.81901 37023 ft 522 kts 55°
2026-05-05 15:28 -36.57686 -62.74183 37023 ft 522 kts 55°
2026-05-05 15:29 -36.53968 -62.66428 37023 ft 522 kts 55°
2026-05-05 15:29 -36.50245 -62.58682 37023 ft 522 kts 55°
2026-05-05 15:30 -36.46514 -62.50938 37023 ft 522 kts 55°
2026-05-05 15:30 -36.42779 -62.43205 37023 ft 522 kts 55°
2026-05-05 15:31 -36.39665 -62.36769 37023 ft 522 kts 55°
2026-05-05 15:31 -36.35924 -62.29053 37023 ft 522 kts 55°
2026-05-05 15:32 -36.32173 -62.21334 37023 ft 522 kts 55°
2026-05-05 15:32 -36.28429 -62.13646 37023 ft 522 kts 55°
2026-05-05 15:33 -36.24683 -62.05903 37015 ft 522 kts 56°
2026-05-05 15:33 -36.20917 -61.98221 36999 ft 522 kts 56°
2026-05-05 15:34 -36.17153 -61.90574 36994 ft 522 kts 56°
2026-05-05 15:34 -36.13433 -61.83023 36995 ft 522 kts 56°
2026-05-05 15:35 -36.09820 -61.75692 36994 ft 522 kts 56°
2026-05-05 15:35 -36.06044 -61.68045 36994 ft 522 kts 56°
2026-05-05 15:36 -36.02277 -61.60334 36994 ft 522 kts 56°
2026-05-05 15:36 -35.98480 -61.52653 36994 ft 522 kts 55°
2026-05-05 15:37 -35.94690 -61.45029 36994 ft 518 kts 55°
2026-05-05 15:37 -35.90925 -61.37470 36994 ft 516 kts 55°
2026-05-05 15:37 -35.89039 -61.33686 36722 ft 520 kts 55°
2026-05-05 15:38 -35.87153 -61.29888 36263 ft 517 kts 56°
2026-05-05 15:38 -35.85290 -61.26125 35755 ft 513 kts 55°
2026-05-05 15:38 -35.83436 -61.22387 35252 ft 509 kts 55°
2026-05-05 15:38 -35.81591 -61.18674 34755 ft 506 kts 55°
2026-05-05 15:39 -35.79762 -61.14998 34265 ft 502 kts 55°
2026-05-05 15:39 -35.77940 -61.11340 33781 ft 499 kts 55°
2026-05-05 15:39 -35.76132 -61.07713 33300 ft 496 kts 54°
2026-05-05 15:39 -35.74351 -61.04147 32831 ft 493 kts 54°
2026-05-05 15:40 -35.72564 -61.00570 32361 ft 490 kts 54°
2026-05-05 15:40 -35.70778 -60.97001 31894 ft 487 kts 54°
2026-05-05 15:40 -35.69022 -60.93448 31433 ft 485 kts 55°
2026-05-05 15:40 -35.67276 -60.89905 30974 ft 482 kts 54°
2026-05-05 15:41 -35.65538 -60.86398 30522 ft 480 kts 54°
2026-05-05 15:41 -35.63800 -60.82905 30075 ft 477 kts 54°
2026-05-05 15:41 -35.62071 -60.79441 29638 ft 474 kts 54°
2026-05-05 15:41 -35.60346 -60.75993 29197 ft 472 kts 54°
2026-05-05 15:42 -35.58633 -60.72573 28756 ft 469 kts 54°
2026-05-05 15:42 -35.56930 -60.69177 28315 ft 466 kts 54°
2026-05-05 15:42 -35.55230 -60.65792 27875 ft 463 kts 54°
2026-05-05 15:42 -35.53546 -60.62441 27436 ft 460 kts 53°
2026-05-05 15:43 -35.51872 -60.59115 27000 ft 457 kts 53°
2026-05-05 15:43 -35.50209 -60.55814 26566 ft 454 kts 53°
2026-05-05 15:43 -35.48549 -60.52521 26131 ft 450 kts 53°
2026-05-05 15:43 -35.46905 -60.49264 25699 ft 447 kts 53°
2026-05-05 15:44 -35.45272 -60.46031 25269 ft 444 kts 53°
2026-05-05 15:44 -35.43654 -60.42833 24841 ft 441 kts 53°
2026-05-05 15:44 -35.42056 -60.39674 24417 ft 438 kts 53°
2026-05-05 15:44 -35.40458 -60.36519 23992 ft 434 kts 53°
2026-05-05 15:45 -35.38869 -60.33387 23566 ft 431 kts 53°
2026-05-05 15:45 -35.37306 -60.30306 23147 ft 428 kts 53°
2026-05-05 15:45 -35.35729 -60.27202 22721 ft 425 kts 53°
2026-05-05 15:45 -35.34167 -60.24130 22300 ft 422 kts 53°
2026-05-05 15:46 -35.32624 -60.21097 21881 ft 418 kts 53°
2026-05-05 15:46 -35.31090 -60.18085 21467 ft 415 kts 53°
2026-05-05 15:46 -35.29566 -60.15095 21053 ft 412 kts 52°
2026-05-05 15:46 -35.28056 -60.12134 20644 ft 409 kts 52°
2026-05-05 15:47 -35.26559 -60.09202 20237 ft 406 kts 52°
2026-05-05 15:47 -35.25570 -60.07267 19968 ft 404 kts 52°
2026-05-05 15:47 -35.23586 -60.03387 19429 ft 399 kts 52°
2026-05-05 15:47 -35.22119 -60.00520 19030 ft 396 kts 52°
2026-05-05 15:48 -35.20664 -59.97680 18633 ft 393 kts 52°
2026-05-05 15:48 -35.19217 -59.94837 18235 ft 391 kts 53°
2026-05-05 15:48 -35.17792 -59.92024 17841 ft 388 kts 53°
2026-05-05 15:48 -35.16370 -59.89244 17450 ft 385 kts 53°
2026-05-05 15:49 -35.14951 -59.86483 17059 ft 383 kts 53°
2026-05-05 15:49 -35.13536 -59.83738 16669 ft 380 kts 53°
2026-05-05 15:49 -35.12128 -59.81012 16281 ft 378 kts 53°
2026-05-05 15:49 -35.10731 -59.78308 15896 ft 376 kts 53°
2026-05-05 15:50 -35.09338 -59.75615 15512 ft 374 kts 53°
2026-05-05 15:50 -35.07958 -59.72950 15131 ft 371 kts 53°
2026-05-05 15:50 -35.06578 -59.70283 14751 ft 369 kts 53°
2026-05-05 15:50 -35.05224 -59.67668 14377 ft 367 kts 53°
2026-05-05 15:51 -35.03862 -59.65040 14002 ft 365 kts 54°
2026-05-05 15:51 -35.02540 -59.62402 13628 ft 365 kts 57°
2026-05-05 15:51 -35.01396 -59.59633 13256 ft 364 kts 62°
2026-05-05 15:51 -35.00372 -59.56818 12885 ft 363 kts 64°
2026-05-05 15:52 -34.99391 -59.53987 12513 ft 362 kts 64°
2026-05-05 15:52 -34.98400 -59.51167 12142 ft 360 kts 64°
2026-05-05 15:52 -34.97405 -59.48372 11773 ft 359 kts 64°
2026-05-05 15:52 -34.96405 -59.45589 11405 ft 357 kts 64°
2026-05-05 15:53 -34.95403 -59.42817 11038 ft 356 kts 64°
2026-05-05 15:53 -34.94403 -59.40060 10672 ft 355 kts 64°
2026-05-05 15:53 -34.93404 -59.37314 10308 ft 353 kts 64°
2026-05-05 15:53 -34.92412 -59.34589 10051 ft 348 kts 64°
2026-05-05 15:54 -34.91457 -59.31971 9937 ft 339 kts 64°
2026-05-05 15:54 -34.90501 -59.29353 9615 ft 337 kts 64°
2026-05-05 15:54 -34.89550 -59.26751 9283 ft 336 kts 64°
2026-05-05 15:54 -34.88619 -59.24143 8947 ft 335 kts 65°
2026-05-05 15:55 -34.87699 -59.21538 8641 ft 332 kts 65°
2026-05-05 15:55 -34.86789 -59.19006 8409 ft 325 kts 65°
2026-05-05 15:55 -34.85876 -59.16494 8050 ft 324 kts 64°
2026-05-05 15:55 -34.84961 -59.13989 7706 ft 322 kts 64°
2026-05-05 15:56 -34.84054 -59.11518 7370 ft 319 kts 64°
2026-05-05 15:56 -34.83151 -59.09063 7039 ft 317 kts 64°
2026-05-05 15:56 -34.82254 -59.06626 6706 ft 314 kts 64°
2026-05-05 15:56 -34.81364 -59.04211 6369 ft 312 kts 64°
2026-05-05 15:57 -34.80478 -59.01808 6026 ft 310 kts 64°
2026-05-05 15:57 -34.79599 -58.99426 5680 ft 308 kts 64°
2026-05-05 15:57 -34.78730 -58.97071 5333 ft 306 kts 64°
2026-05-05 15:57 -34.77860 -58.94716 5142 ft 298 kts 64°
2026-05-05 15:58 -34.77030 -58.92469 5070 ft 286 kts 64°
2026-05-05 15:58 -34.76319 -58.90258 4991 ft 275 kts 75°
2026-05-05 15:58 -34.76189 -58.87998 4827 ft 268 kts 96°
2026-05-05 15:58 -34.76489 -58.85755 4505 ft 267 kts 101°
2026-05-05 15:59 -34.76849 -58.83535 4203 ft 266 kts 102°
2026-05-05 15:59 -34.77230 -58.81353 3911 ft 265 kts 102°
2026-05-05 15:59 -34.77620 -58.79166 3625 ft 263 kts 102°
2026-05-05 15:59 -34.78009 -58.76995 3342 ft 261 kts 102°
2026-05-05 16:00 -34.78389 -58.74879 3193 ft 252 kts 102°
2026-05-05 16:00 -34.78759 -58.72820 2909 ft 247 kts 102°
2026-05-05 16:00 -34.79118 -58.70823 2592 ft 242 kts 101°
2026-05-05 16:00 -34.79479 -58.68814 2264 ft 237 kts 104°
2026-05-05 16:01 -34.79822 -58.66908 1956 ft 227 kts 102°
2026-05-05 16:01 -34.80146 -58.65107 1654 ft 207 kts 101°
2026-05-05 16:01 -34.80436 -58.63498 1406 ft 185 kts 100°
2026-05-05 16:01 -34.80615 -58.62499 1243 ft 172 kts 100°
2026-05-05 16:02 -34.80896 -58.60938 984 ft 161 kts 100°
2026-05-05 16:02 -34.81127 -58.59652 785 ft 151 kts 100°
2026-05-05 16:02 -34.81347 -58.58429 588 ft 143 kts 102°
2026-05-05 16:02 -34.81551 -58.57251 419 ft 145 kts 102°
2026-05-05 16:03 -34.81769 -58.56065 251 ft 143 kts 103°
2026-05-05 16:03 -34.81984 -58.54892 84 ft 140 kts 102°
2026-05-05 16:03 -34.82170 -58.53855 74 ft 98 kts 103°
2026-05-05 16:03 -34.82269 -58.53308 74 ft 38 kts 102°
2026-05-05 16:04 -34.82325 -58.52999 74 ft 23 kts 102°
2026-05-05 16:04 -34.82307 -58.52882 74 ft 13 kts
2026-05-05 16:04 -34.82222 -58.52909 74 ft 12 kts 343°
2026-05-05 16:04 -34.82142 -58.52938 74 ft 12 kts 343°
2026-05-05 16:05 -34.82065 -58.52966 74 ft 11 kts 339°
2026-05-05 16:05 -34.82022 -58.53041 74 ft 11 kts 291°
2026-05-05 16:05 -34.82003 -58.53128 74 ft 10 kts 283°
2026-05-05 16:05 -34.81986 -58.53211 74 ft 10 kts 284°
2026-05-05 16:06 -34.81970 -58.53292 74 ft 10 kts 284°
2026-05-05 16:06 -34.81955 -58.53369 74 ft 9 kts 284°
2026-05-05 16:06 -34.81940 -58.53444 74 ft 9 kts 284°
2026-05-05 16:06 -34.81925 -58.53514 74 ft 8 kts 284°
2026-05-05 16:07 -34.81912 -58.53583 74 ft 8 kts 284°
2026-05-05 16:07 -34.81875 -58.53643 74 ft 13 kts 333°
2026-05-05 16:07 -34.81806 -58.53683 74 ft 10 kts 335°
2026-05-05 16:07 -34.81743 -58.53719 74 ft 10 kts 335°
2026-05-05 16:08 -34.81703 -58.53777 74 ft 9 kts 286°
2026-05-05 16:08 -34.81704 -58.53853 74 ft 9 kts 250°
2026-05-05 16:08 -34.81734 -58.53919 74 ft 9 kts 239°
2026-05-05 16:08 -34.81764 -58.53979 74 ft 8 kts 239°
2026-05-05 16:09 -34.81788 -58.54041 74 ft 8 kts 252°
2026-05-05 16:09 -34.81792 -58.54105 74 ft 7 kts 274°
2026-05-05 16:09 -34.81784 -58.54166 74 ft 7 kts 279°
2026-05-05 16:09 -34.81779 -58.54224 74 ft 7 kts 276°
2026-05-05 16:10 -34.81772 -58.54281 74 ft 7 kts 278°
2026-05-05 16:10 -34.81766 -58.54336 74 ft 6 kts 278°
2026-05-05 16:10 -34.81762 -58.54367 74 ft 3 kts 278°
2026-05-05 16:10 -34.81758 -58.54399 74 ft 5 kts 278°
2026-05-05 16:11 -34.81751 -58.54450 74 ft 4 kts 297°
2026-05-05 16:11 -34.81648 -58.54432 74 ft 3 kts 13°
2026-05-05 16:12 -34.81644 -58.54431 74 ft 0 kts 13°